Regional Weather Roundup
Issued by NWS

Home | Current Version | Previous Version | Text Only | Print | Product List | Glossary On
Versions: 1 2 3 4 5 6 7 8 9 10 11 12 13 14 15 16 17 18 19 20 21 22 23 24 25 26 27 28 29 30 31 32 33 34 35 36 37 38 39 40 41 42 43 44 45 46 47 48 49 50
000
ASUS43 KLOT 250603
RWRIL

ILLINOIS REGIONAL WEATHER ROUNDUP
NATIONAL WEATHER SERVICE CHICAGO/ROMEOVILLE IL
1200 AM CST SAT NOV 25 2017

NOTE: "FAIR" INDICATES FEW OR NO CLOUDS BELOW 12,000 FEET WITH NO
SIGNIFICANT WEATHER AND/OR OBSTRUCTIONS TO VISIBILITY.

* THESE STATIONS ARE NOT UNDER NWS QUALITY CONTROL. THEY ALSO MAY NOT
  REPORT WEATHER SUCH AS PRECIPITATION OR FOG.

ILZ001-002-007-009-015-016-024-250700-
NORTHWEST ILLINOIS

CITY           SKY/WX    TMP DP  RH WIND       PRES   REMARKS
MOLINE         CLEAR     49  38  65 NW17G31   29.74R
6HR MIN TEMP:  49; 6HR MAX TEMP:  65;

STERLING*        N/A     49  43  80 NW10      29.70R
SAVANNA*       PTCLDY    49  41  73 NW8       29.73R
$$

ILZ003-004-008-010-011-017-018-250700-
NORTH CENTRAL ILLINOIS

CITY           SKY/WX    TMP DP  RH WIND       PRES   REMARKS
ROCKFORD       CLEAR     51  43  74 NW13      29.68R
6HR MIN TEMP:  51; 6HR MAX TEMP:  59; 6HR PCP: TRACE;

FREEPORT*      CLEAR     48  41  76 NW17      29.71R
ROCHELLE*      CLEAR     50  43  77 NW13      29.67R
DE KALB*       CLEAR     50  43  76 NW13G20   29.64R
PERU*          CLEAR     50  42  73 W14       29.68R
$$

ILZ005-006-012>014-019>023-250700-
NORTHEAST ILLINOIS

CITY           SKY/WX    TMP DP  RH WIND       PRES   REMARKS
CHICAGO-OHARE  CLOUDY    55  41  59 NW14      29.59R
6HR MIN TEMP:  51; 6HR MAX TEMP:  57;

CHICAGO-MIDWAY NOT AVBL
AURORA         CLOUDY    49  42  77 W12       29.63R
6HR MIN TEMP:  42; 6HR MAX TEMP:  57;

LANSING*       MOCLDY    46  41  81 W6        29.62R
JOLIET*        PTCLDY    52  43  73 W7        29.64R
WAUKEGAN       MOCLDY    54  45  71 NW16G25   29.59R
6HR MIN TEMP:  53; 6HR MAX TEMP:  58; 6HR PCP: TRACE;

DUPAGE AIRPORT MOCLDY    52  43  71 W13       29.61R
6HR MIN TEMP:  49; 6HR MAX TEMP:  54;

KANKAKEE*      PTCLDY    45  39  78 W9        29.66R
WHEELING       MOCLDY    56  43  61 NW12      29.61R
6HR MIN TEMP:  49; 6HR MAX TEMP:  58;

MORRIS*        CLOUDY    48  41  78 W9        29.63R
ROMEOVILLE*    MOCLDY    51  42  73 NW12      29.63R
NORTHERLY ISL    N/A     52  39  61 W5          N/A
$$

LMZ740>746-250700-
SOUTHERN LAKE MICHIGAN

STATION/POSITION SKY/WX   TEMP    WIND        PRES    VSBY  WAVE
                          AIR SEA DIR/SP/G                  HT/PER
                          (F)     (DEG/KT/KT) (MB)    (MI)  (FT/S)
SOUTHERN BUOY              50 47  270/ 12/ 14  999.6          4/ 6
HARRISON CRIB              55     280/ 15/ 17   N/A
BURNHAM HARBOR             52     290/  2/  8   N/A
CALUMET HARBOR             50     230/  6/  9 1001.8R
BURNS HARBOR               51     230/ 13/ 17 1003.0R
MICHIGAN CITY              51     210/ 15/ 15   N/A
$$

ILZ025>027-034>036-040-047-049-050-058-095>099-250700-
WEST-CENTRAL ILLINOIS

CITY           SKY/WX    TMP DP  RH WIND       PRES   REMARKS
QUINCY         CLEAR     52  42  69 NW17      29.81R
GALESBURG*     CLEAR     49  42  78 NW10      29.77R
MACOMB*        CLEAR     49  41  74 NW16      29.79R
JACKSONVILLE*  CLEAR     53  41  63 MISG      29.76R
PITTSFIELD*    CLEAR     54  43  65 NW10G18   29.80R
$$

ILZ028>032-037-038-041>044-048-051>054-059>061-250700-
CENTRAL ILLINOIS

CITY           SKY/WX    TMP DP  RH WIND       PRES   REMARKS
PONTIAC        PTCLDY    51  44  77 W15       29.68R
BLOOMINGTON    CLOUDY    50  41  71 NW15      29.70R
DECATUR        PTCLDY    50  38  63 W7        29.71R
PEORIA         CLEAR     54  43  66 NW13G26   29.73R
6HR MIN TEMP:  52; 6HR MAX TEMP:  59;

LACON*         CLEAR     51  43  75 NW12      29.70R
LINCOLN*       CLEAR     54  42  66 W6        29.72R
SPRINGFIELD    CLEAR     56  42  59 NW15      29.74R
6HR MIN TEMP:  46; 6HR MAX TEMP:  60;

TAYLORVILLE    PTCLDY    49  37  65 W7        29.72R
6HR MIN TEMP:  48; 6HR MAX TEMP:  55;

$$

ILZ033-039-045-046-055>057-062-063-250700-
EAST-CENTRAL ILLINOIS

CITY           SKY/WX    TMP DP  RH WIND       PRES   REMARKS
CHAMPAIGN      CLOUDY    48  39  71 SW10      29.70R
DANVILLE*      CLOUDY    49  37  65 SW13      29.65R
RANTOUL*       CLOUDY    49  41  72 SW9       29.68R
MATTOON        MOCLDY    52  38  58 SW9       29.70R
PARIS*         MOCLDY    48  38  68 SW15      29.70S
$$

ILZ079-100>102-250700-
SOUTHWEST ILLINOIS

CITY           SKY/WX    TMP DP  RH WIND       PRES   REMARKS
ALTON          CLOUDY    50  39  65 W7        29.74R
BELLEVILLE     MOCLDY    53  37  55 SW6       29.73R
CAHOKIA*       CLOUDY    57  35  43 W6        29.73R
SPARTA*        CLOUDY    56  36  47 SW7       29.76S
$$

ILZ064>066-069>071-074>076-080>082-084>086-088>090-092>094-250700-
SOUTH-CENTRAL ILLINOIS

CITY           SKY/WX    TMP DP  RH WIND       PRES   REMARKS
CARBONDALE     MOCLDY    55  36  48 MISG      29.78R
6HR MIN TEMP:  54; 6HR MAX TEMP:  57;

CAIRO*         CLOUDY    53  35  51 SW10      29.84R
EFFINGHAM*     PTCLDY    53  39  59 SW6       29.74S
MARION         CLOUDY    57  35  43 SW13G20   29.79S
MT. VERNON     CLOUDY    54  37  52 SW14      29.75S
CENTRALIA*     CLOUDY    55  39  55 SW12      29.74R
SALEM*         CLOUDY    56  37  48 SW12G17   29.74R
METROPOLIS*    CLOUDY    53  34  48 SW8       29.84S
$$

ILZ067-068-072-073-078-083-087-091-250700-
SOUTHEAST ILLINOIS

CITY           SKY/WX    TMP DP  RH WIND       PRES   REMARKS
LAWRENCEVILLE  PTCLDY    51  36  56 SW6       29.75R
FLORA*         CLOUDY    55  37  51 SW9       29.74R
FAIRFIELD*     CLOUDY    53  36  52 S3        29.74S
HARRISBURG*    MOCLDY    56  36  47 SW10G17   29.80R
ROBINSON*      MOCLDY    52  36  53 SW16      29.74R
CARMI*         CLOUDY    55  35  48 SW16G22   29.76S
$$

ABBREVIATIONS USED IN REMARKS
   TC - TEMPERATURE IN CELSIUS
  WCI - WIND CHILL INDEX
   HX - HEAT INDEX
  VSB - VISIBILITY
$$





USA.gov is the U.S. government's official web portal to all federal, state and local government web resources and services.